Date,TemperatureHighF,TemperatureAvgF,TemperatureLowF,DewpointHighF,DewpointAvgF,DewpointLowF,HumidityHigh,HumidityAvg,HumidityLow,PressureMaxIn,PressureMinIn,WindSpeedMaxMPH,WindSpeedAvgMPH,GustSpeedMaxMPH,PrecipitationSumIn
2013-6-1,77.0,70.1,64.0,74.0,69.2,64.0,100,97,85,29.95,29.81,15,3,22,0.88
2013-6-2,75.0,68.3,63.0,68.4,64.3,60.1,100,88,62,29.97,29.86,12,3,12,0.00
2013-6-3,73.0,63.2,56.0,63.0,56.3,51.8,100,81,51,30.08,29.96,9,3,11,0.00
2013-6-4,79.0,64.9,48.0,60.0,54.9,48.0,100,73,46,30.14,30.03,9,2,13,0.00
2013-6-5,87.0,72.1,59.0,66.2,58.1,50.3,94,63,42,30.06,29.87,7,1,11,0.00
2013-6-6,83.0,71.7,64.0,76.3,67.2,62.3,100,88,54,29.87,29.78,7,2,10,2.32
2013-6-7,81.0,68.6,62.0,68.0,64.0,58.9,100,87,52,29.89,29.80,9,2,12,0.00
2013-6-8,82.0,70.6,61.0,73.2,64.4,61.0,100,83,52,30.02,29.87,6,1,7,0.36
2013-6-9,86.0,72.6,63.0,72.2,66.6,59.3,100,84,42,30.07,29.85,8,2,13,0.00
2013-6-10,79.0,70.5,65.0,73.4,67.9,64.7,100,92,67,29.91,29.80,7,2,12,0.28
2013-6-11,89.0,75.4,62.0,73.2,66.4,60.5,99,77,46,30.06,29.91,7,2,10,0.00
2013-6-12,94.0,82.2,72.0,80.8,74.6,71.7,100,80,52,30.02,29.79,9,2,16,0.00
2013-6-13,83.0,76.5,66.0,74.4,60.8,52.7,79,60,40,29.99,29.75,17,4,17,0.20
2013-6-14,85.0,71.0,55.0,65.7,60.2,55.0,100,72,41,30.12,29.94,10,2,10,0.00
2013-6-15,89.0,73.9,59.0,68.5,63.2,59.0,100,74,42,30.15,30.01,14,1,14,0.00
2013-6-16,76.0,71.9,68.0,75.0,69.7,64.4,100,93,72,30.07,29.97,12,1,12,0.50
2013-6-17,91.0,75.8,65.0,77.3,70.2,64.1,100,85,51,30.03,29.91,14,1,17,0.48
2013-6-18,88.0,71.0,63.0,75.8,66.4,61.0,100,87,56,29.99,29.88,6,1,13,0.13
2013-6-19,85.0,72.8,63.0,70.5,64.5,59.7,95,77,54,30.14,29.98,9,2,12,0.01
2013-6-20,91.0,76.0,61.0,69.5,63.2,57.7,94,68,39,30.25,30.10,8,2,11,0.00
2013-6-21,95.0,78.4,62.0,75.4,67.8,59.0,96,73,40,30.27,30.09,7,1,12,0.00
2013-6-22,93.0,78.3,69.0,76.5,71.6,65.9,100,83,48,30.23,30.06,9,2,15,0.00
2013-6-23,90.0,76.7,65.0,76.8,71.1,63.5,99,84,51,30.18,30.07,7,2,12,0.00
2013-6-24,81.0,75.0,70.0,77.1,73.9,69.7,100,96,82,30.18,30.07,6,2,10,0.00
2013-6-25,93.0,79.8,67.0,79.5,73.4,65.8,100,83,55,30.12,29.96,7,2,17,0.12
2013-6-26,83.0,70.4,66.0,81.1,68.9,64.9,100,95,87,30.03,29.76,15,2,23,2.65
2013-6-27,90.0,76.8,68.0,82.7,72.8,65.9,96,88,63,29.89,29.79,10,2,12,0.05
2013-6-28,88.0,78.4,69.0,74.1,67.0,59.7,95,71,41,29.80,29.69,17,3,20,0.00
2013-6-29,83.0,70.0,63.0,73.2,65.0,56.1,98,85,58,29.69,29.62,13,1,13,0.48
2013-6-30,65.0,64.5,64.0,56.9,56.2,55.5,76,74,74,29.68,29.67,1,0,6,0.00